Tracking 20232 objects as of 18-Jan-2020
HD Live streaming from Space Station
objects crossing your sky now

FLOCK 3P 67

Track FLOCK 3P 67 now!
10-day predictions
FLOCK 3P 67 is classified as:


NORAD ID: 42002
Int'l Code: 2017-008BG
Perigee: 484.8 km
Apogee: 497.0 km
Inclination: 97.4 °
Period: 94.3 minutes
Semi major axis: 6861 km
RCS: Unknown
Launch date: February 15, 2017
Source: United States (US)
Launch site: SRIHARIKOTA (SRI)
aabbcc
Your satellite tracking list
Your tracking list is empty




NASA's NSSDC Master Catalog

Two Line Element Set (TLE):
1 42002U 17008BG  20017.20776488 +.00001722 +00000-0 +67021-4 0  9998
2 42002 097.3840 087.7658 0008939 121.5771 238.6342 15.27341326162422
Source of the keplerian elements: AFSPC